Flag for India Weather past 2 weeks in Karaikudi, Tamil Nadu, India

Now
88 °F

Passing clouds.


Feels Like: 96 °F
Forecast: 78 / 94 °F
Wind: 15 mph from Southeast

Location: Tiruchchirapalli

Current Time: Mar 31, 2015 at 9:17:15 PM

Latest Report: Mar 31, 2015 at 7:40 PM


Visibility: 4 mi

Pressure: 29.83 "Hg

Humidity: 62%

Dew point: 73 °F

Location of KaraikudiLocation

Historic Weather in Karaikudi — Graph

°F

Karaikudi temperature yesterday

Maximum temperature yesterday: 97 °F (at 1:40 PM)
Minimum temperature yesterday: 77 °F (at 5:40 AM)
Average temperature yesterday: 87 °F

Past Weeks' High & Low Weather Summary

 TemperatureHumidityPressure
High100 °F (Mar 22, 3:40 PM)94% (Mar 30, 5:40 AM)30.01 "Hg (Mar 30, 5:40 AM)
Low72 °F (Mar 18, 5:40 AM)24% (Mar 19, 1:40 PM)29.74 "Hg (Mar 23, 4:40 PM)
Average87 °F59%29.87 "Hg
* Reported Mar 16 7:40 PM — Mar 31 7:40 PM, Karaikudi, Weather by CustomWeather, © 2015

Note: Actual official high and low records may vary slightly from our data, if they occured in-between our weather recording intervals... More about our weather records

Advertising

Karaikudi weather history for previous 24 hours

 ConditionsComfort  
Time TempWeatherWind HumidityBarometerVisibility
7:40 PM
Tue, Mar 31
88 °FPassing clouds.15 mph62%29.83 "Hg4 mi
6:40 PM90 °FPassing clouds.10 mph59%29.77 "Hg4 mi
5:40 PM95 °FPassing clouds.12 mph47%29.74 "Hg5 mi
4:40 PM100 °FScattered clouds.10 mph35%29.74 "Hg5 mi
3:40 PM99 °FScattered clouds.6 mph37%29.74 "Hg5 mi
2:40 PM99 °FScattered clouds.8 mph37%29.77 "Hg5 mi
1:40 PM99 °FScattered clouds.7 mph37%29.80 "Hg5 mi
11:40 AM93 °FScattered clouds.12 mph49%29.86 "Hg4 mi
10:40 AM88 °FScattered clouds.3 mph62%29.92 "Hg4 mi
9:40 AM88 °FScattered clouds.3 mph66%29.92 "Hg4 mi
7:40 AM82 °FFog.6 mph79%29.86 "Hg2 mi
6:40 AM79 °FFog.2 mph89%29.86 "Hg2 mi
5:40 AM81 °FFog.5 mph84%29.83 "Hg2 mi
4:40 AM81 °FFog.3 mph84%29.83 "Hg2 mi
3:40 AM81 °FFog.5 mph84%29.80 "Hg2 mi
2:40 AM81 °FFog.2 mph84%29.80 "Hg3 mi
1:40 AM81 °FFog.2 mph79%29.83 "Hg3 mi
11:40 PM
Mon, Mar 30
82 °FPassing clouds.6 mph74%29.86 "Hg4 mi
10:40 PM84 °FPassing clouds.7 mph66%29.89 "Hg4 mi
9:40 PM84 °FPassing clouds.10 mph66%29.86 "Hg4 mi
Weather by CustomWeather, © 2015

See weather overviewHow to use our weather pages